Weather History for Corvallis, OR

Change the Weather History Date:

Tuesday, February 25, 2014

  Actual Average Record
Temperature  
Mean Temperature 47 °F -  
Max Temperature 55 °F 51 °F 57 °F (2001)
Min Temperature 39 °F 35 °F 24 °F (2003)
Degree Days  
Heating Degree Days 18    
Moisture  
Dew Point 39 °F    
Average Humidity 74    
Maximum Humidity 93    
Minimum Humidity 54    
Precipitation  
Precipitation 0.00 in - - ()
Sea Level Pressure  
Sea Level Pressure 29.98 in    
Wind  
Wind Speed 9 mph (NE)    
Max Wind Speed 15 mph    
Max Gust Speed 17 mph    
Visibility 10 miles    
Events      
Averages and records for this station are not official NWS values.
T = Trace of Precipitation, MM = Missing Value Source: NWS Daily Summary

Daily Weather History Graph

Daily Weather History Graph

Search for Another Location

Airport:

Trip Planner

Search our weather history database for the weather conditions in past years. The results will help you decide how hot, cold, wet, or windy it might be!

Date:

Astronomy

Feb. 25, 2014 Rise Set
Actual Time 6:57 AM PST 5:55 PM PST
Civil Twilight 6:27 AM PST 6:25 PM PST
Nautical Twilight 5:54 AM PST 6:59 PM PST
Astronomical Twilight 5:20 AM PST 7:32 PM PST
Moon 4:03 AM PST (2/25) 2:01 PM PST (2/25)
Length of Visible Light 11h 57m
Length of Day
10h 58m
Waning Crescent, 17% of the Moon is Illuminated
Feb 25
Waning Crescent
Mar 1
New
Mar 8
First Quarter
Mar 16
Full
Mar 23
Last Quarter

Hourly Weather History & Observations

Time (PST) Temp. Windchill Dew Point Humidity Pressure Visibility Wind Dir Wind Speed Gust Speed Precip Events Conditions
12:15 AM 48.2 °F - 46.4 °F 93% 30.01 in 10.0 mi NE 10.4 mph - N/A   Overcast
12:35 AM 48.2 °F - 46.4 °F 93% 30.01 in 10.0 mi ENE 8.1 mph - N/A   Overcast
12:55 AM 48.2 °F - 44.6 °F 87% 30.01 in 10.0 mi NE 6.9 mph - N/A   Overcast
1:15 AM 48.2 °F - 44.6 °F 87% 30.01 in 10.0 mi NE 9.2 mph - N/A   Overcast
1:35 AM 46.4 °F 41.5 °F 44.6 °F 93% 30.01 in 10.0 mi NE 10.4 mph - N/A   Overcast
1:55 AM 46.4 °F 41.9 °F 44.6 °F 93% 30.01 in 10.0 mi NE 9.2 mph - N/A   Overcast
2:15 AM 46.4 °F 42.4 °F 44.6 °F 93% 30.01 in 10.0 mi NE 8.1 mph - N/A   Overcast
2:35 AM 46.4 °F 41.5 °F 42.8 °F 87% 30.01 in 10.0 mi NE 10.4 mph - N/A   Overcast
2:55 AM 46.4 °F 41.5 °F 42.8 °F 87% 30.00 in 10.0 mi NE 10.4 mph - N/A   Overcast
3:15 AM 44.6 °F 38.4 °F 41.0 °F 87% 30.00 in 10.0 mi NE 12.7 mph - N/A   Overcast
3:35 AM 44.6 °F 39.2 °F 41.0 °F 87% 30.00 in 10.0 mi NE 10.4 mph - N/A   Overcast
3:55 AM 44.6 °F 39.7 °F 41.0 °F 87% 30.00 in 10.0 mi NE 9.2 mph - N/A   Overcast
4:15 AM 44.6 °F 39.7 °F 39.2 °F 81% 30.00 in 10.0 mi NE 9.2 mph - N/A   Overcast
4:35 AM 44.6 °F 39.2 °F 39.2 °F 81% 30.00 in 10.0 mi NE 10.4 mph - N/A   Overcast
4:55 AM 44.6 °F 39.7 °F 39.2 °F 81% 30.00 in 10.0 mi NE 9.2 mph - N/A   Overcast
5:15 AM 44.6 °F 40.7 °F 39.2 °F 81% 30.01 in 10.0 mi NNE 6.9 mph - N/A   Overcast
5:35 AM 42.8 °F 38.0 °F 39.2 °F 87% 30.00 in 10.0 mi NNE 8.1 mph - N/A   Overcast
5:55 AM 42.8 °F 38.6 °F 39.2 °F 87% 30.01 in 10.0 mi NNE 6.9 mph - N/A   Overcast
6:15 AM 42.8 °F 41.1 °F 37.4 °F 81% 30.00 in 10.0 mi NNE 3.5 mph - N/A   Overcast
6:35 AM 42.8 °F 41.1 °F 37.4 °F 81% 30.00 in 10.0 mi NNE 3.5 mph - N/A   Mostly Cloudy
6:55 AM 41.0 °F 39.0 °F 37.4 °F 87% 30.00 in 10.0 mi NNE 3.5 mph - N/A   Scattered Clouds
7:15 AM 41.0 °F 36.4 °F 37.4 °F 87% 30.00 in 10.0 mi NNE 6.9 mph - N/A   Clear
7:35 AM 42.8 °F 40.1 °F 37.4 °F 81% 30.01 in 10.0 mi NNE 4.6 mph - N/A   Partly Cloudy
7:55 AM 42.8 °F 39.3 °F 37.4 °F 81% 30.01 in 10.0 mi NE 5.8 mph - N/A   Scattered Clouds
8:15 AM 42.8 °F 40.1 °F 37.4 °F 81% 30.01 in 10.0 mi NNE 4.6 mph - N/A   Mostly Cloudy
8:35 AM 44.6 °F 42.2 °F 37.4 °F 76% 30.02 in 10.0 mi NNE 4.6 mph - N/A   Overcast
8:55 AM 44.6 °F 43.1 °F 37.4 °F 76% 30.02 in 10.0 mi NNE 3.5 mph - N/A   Mostly Cloudy
9:15 AM 46.4 °F 42.4 °F 37.4 °F 71% 30.02 in 10.0 mi NNE 8.1 mph - N/A   Mostly Cloudy
9:35 AM 46.4 °F 42.9 °F 37.4 °F 71% 30.02 in 10.0 mi NE 6.9 mph - N/A   Mostly Cloudy
9:55 AM 46.4 °F 42.4 °F 37.4 °F 71% 30.02 in 10.0 mi NNE 8.1 mph - N/A   Mostly Cloudy
10:15 AM 48.2 °F - 37.4 °F 66% 30.02 in 10.0 mi NNE 10.4 mph - N/A   Partly Cloudy
10:35 AM 48.2 °F - 37.4 °F 66% 30.02 in 10.0 mi NE 13.8 mph 17.3 mph N/A   Clear
10:55 AM 48.2 °F - 37.4 °F 66% 30.02 in 10.0 mi NE 12.7 mph - N/A   Clear
11:15 AM 48.2 °F - 37.4 °F 66% 30.01 in 10.0 mi NE 15.0 mph - N/A   Clear
11:35 AM 50.0 °F - 39.2 °F 66% 30.02 in 10.0 mi NE 13.8 mph - N/A   Clear
11:55 AM 51.8 °F - 37.4 °F 58% 30.01 in 10.0 mi NE 13.8 mph - N/A   Clear
12:15 PM 51.8 °F - 39.2 °F 62% 30.00 in 10.0 mi NE 13.8 mph - N/A   Clear
12:35 PM 51.8 °F - 39.2 °F 62% 29.99 in 10.0 mi NE 13.8 mph - N/A   Clear
12:55 PM 51.8 °F - 39.2 °F 62% 29.99 in 10.0 mi NE 12.7 mph - N/A   Clear
1:15 PM 53.6 °F - 39.2 °F 58% 29.98 in 10.0 mi NE 15.0 mph - N/A   Clear
1:35 PM 53.6 °F - 41.0 °F 62% 29.97 in 10.0 mi NE 15.0 mph - N/A   Clear
1:55 PM 53.6 °F - 39.2 °F 58% 29.97 in 10.0 mi NE 12.7 mph - N/A   Clear
2:15 PM 55.4 °F - 39.2 °F 54% 29.96 in 10.0 mi NNE 12.7 mph - N/A   Clear
2:35 PM 55.4 °F - 39.2 °F 54% 29.96 in 10.0 mi NE 11.5 mph - N/A   Clear
2:55 PM 55.4 °F - 39.2 °F 54% 29.95 in 10.0 mi NE 9.2 mph - N/A   Clear
3:15 PM 55.4 °F - 39.2 °F 54% 29.95 in 10.0 mi NE 10.4 mph - N/A   Clear
3:35 PM 53.6 °F - 39.2 °F 58% 29.94 in 10.0 mi NE 10.4 mph 17.3 mph N/A   Clear
3:55 PM 53.6 °F - 39.2 °F 58% 29.94 in 10.0 mi NE 11.5 mph - N/A   Clear
4:15 PM 53.6 °F - 39.2 °F 58% 29.93 in 10.0 mi NNE 11.5 mph - N/A   Clear
4:35 PM 53.6 °F - 39.2 °F 58% 29.93 in 10.0 mi NE 11.5 mph - N/A   Clear
4:55 PM 53.6 °F - 39.2 °F 58% 29.93 in 10.0 mi NE 9.2 mph - N/A   Clear
5:15 PM 51.8 °F - 39.2 °F 62% 29.93 in 10.0 mi NE 11.5 mph - N/A   Clear
5:35 PM 51.8 °F - 39.2 °F 62% 29.93 in 10.0 mi NE 10.4 mph - N/A   Clear
5:55 PM 50.0 °F - 39.2 °F 66% 29.93 in 10.0 mi NE 8.1 mph - N/A   Clear
6:15 PM 48.2 °F - 37.4 °F 66% 29.93 in 10.0 mi NE 10.4 mph - N/A   Clear
6:35 PM - - - N/A% 29.93 in 10.0 mi NE 8.1 mph - N/A   Clear
6:55 PM 46.4 °F 41.9 °F 37.4 °F 71% 29.93 in 10.0 mi NE 9.2 mph - N/A   Clear
7:15 PM 46.4 °F 42.4 °F 37.4 °F 71% 29.94 in 10.0 mi NE 8.1 mph - N/A   Clear
7:35 PM 46.4 °F 42.4 °F 37.4 °F 71% 29.94 in 10.0 mi NE 8.1 mph - N/A   Clear
7:55 PM 44.6 °F 40.2 °F 37.4 °F 76% 29.94 in 10.0 mi NNE 8.1 mph - N/A   Clear
8:15 PM 42.8 °F 38.0 °F 35.6 °F 76% 29.94 in 10.0 mi NNE 8.1 mph - N/A   Clear
8:35 PM - - - N/A% 29.94 in 10.0 mi NNE 4.6 mph - N/A   Clear
8:55 PM - - - N/A% 29.94 in 10.0 mi NNE 3.5 mph - N/A   Clear
9:15 PM 39.2 °F 35.9 °F 35.6 °F 87% 29.95 in 10.0 mi North 4.6 mph - N/A   Clear
9:35 PM 42.8 °F - 35.6 °F 76% 29.95 in 10.0 mi Calm Calm - N/A   Clear
9:55 PM 41.0 °F 39.0 °F 35.6 °F 81% 29.95 in 10.0 mi ESE 3.5 mph - N/A   Clear
10:15 PM 41.0 °F - 35.6 °F 81% 29.95 in 10.0 mi Calm Calm - N/A   Clear
10:35 PM 39.2 °F - 35.6 °F 87% 29.95 in 10.0 mi Calm Calm - N/A   Clear
10:55 PM 41.0 °F - 33.8 °F 76% 29.95 in 10.0 mi Calm Calm - N/A   Clear
11:15 PM 41.0 °F - 33.8 °F 76% 29.95 in 10.0 mi Calm Calm - N/A   Clear
11:35 PM 39.2 °F 35.9 °F 35.6 °F 87% 29.94 in 10.0 mi NNW 4.6 mph - N/A   Clear
11:55 PM 39.2 °F 35.9 °F 33.8 °F 81% 29.94 in 10.0 mi NNW 4.6 mph - N/A   Clear